Date,TemperatureHighF,TemperatureAvgF,TemperatureLowF,DewpointHighF,DewpointAvgF,DewpointLowF,HumidityHigh,HumidityAvg,HumidityLow,PressureMaxIn,PressureMinIn,WindSpeedMaxMPH,WindSpeedAvgMPH,GustSpeedMaxMPH,PrecipitationSumIn
2013-10-1,80.7,65.7,55.7,63.3,56.6,50.8,98,76,41,28.37,28.28,13,2,14,0.00
2013-10-2,83.3,65.3,50.2,65.9,56.8,49.4,98,77,43,28.39,28.31,9,1,9,0.00
2013-10-3,80.5,66.1,55.6,68.5,59.9,54.7,98,83,50,28.41,28.33,14,1,14,0.00
2013-10-4,83.4,66.8,55.6,68.6,61.5,54.8,99,85,51,28.40,28.31,9,1,9,0.00
2013-10-5,84.5,69.5,57.8,71.7,61.5,57.0,99,79,41,28.40,28.30,12,2,12,0.00
2013-10-6,81.8,68.8,56.8,68.4,61.0,56.0,99,79,47,28.31,28.16,19,3,19,0.00
2013-10-7,69.3,61.8,46.3,66.7,56.3,44.5,99,84,49,28.30,28.03,21,4,22,1.01
2013-10-8,68.5,54.4,42.9,47.8,44.8,40.4,97,74,43,28.50,28.30,21,2,21,1.01
2013-10-9,60.6,52.8,47.7,50.3,47.4,44.5,97,83,63,28.54,28.43,17,3,19,0.10
2013-10-10,61.4,54.3,48.3,57.8,53.0,47.5,98,95,85,28.43,28.24,14,1,15,0.22
2013-10-11,66.6,58.8,54.6,58.5,56.0,53.7,98,91,73,28.26,28.21,11,1,14,0.01
2013-10-12,66.1,60.8,57.5,62.7,59.7,56.6,98,96,87,28.41,28.23,13,2,13,0.02
2013-10-13,62.6,58.3,55.7,60.8,57.3,54.8,98,97,90,28.53,28.40,9,1,12,0.13
2013-10-14,65.0,58.1,53.7,60.6,56.6,52.8,98,95,81,28.54,28.46,7,0,7,0.05
2013-10-15,69.9,57.8,50.6,62.3,53.7,49.7,98,87,59,28.47,28.32,6,1,6,0.00
2013-10-16,68.6,57.6,46.6,60.0,54.3,45.7,98,90,66,28.32,28.16,11,2,11,0.00
2013-10-17,68.0,61.2,55.7,64.4,58.9,47.5,98,92,73,28.16,28.00,14,2,16,0.07
2013-10-18,65.8,54.5,44.2,47.5,42.9,38.7,94,67,42,28.26,28.12,16,3,17,0.00
2013-10-19,63.6,57.6,49.9,55.1,49.7,36.9,97,75,56,28.14,28.02,26,5,26,0.00
2013-10-20,61.0,48.1,33.9,46.6,36.4,31.7,97,66,40,28.30,28.13,22,2,26,0.00
2013-10-21,66.0,49.3,32.7,49.5,41.2,31.4,97,77,46,28.33,28.16,18,2,18,0.00
2013-10-22,62.8,50.1,39.9,48.9,42.4,37.4,97,77,49,28.16,28.02,22,3,22,0.00
2013-10-23,54.6,44.9,37.2,40.9,36.2,31.3,96,73,53,28.12,27.88,26,4,26,0.00
2013-10-24,46.8,40.5,32.8,32.9,28.5,24.2,88,63,43,28.32,28.12,22,5,23,0.00
2013-10-25,49.8,36.2,23.1,35.0,25.7,21.4,94,69,36,28.48,28.31,17,4,18,0.00
2013-10-26,54.9,39.3,21.4,34.8,26.4,19.6,94,65,32,28.47,28.14,25,4,26,0.00
2013-10-27,61.7,48.0,34.2,42.5,33.7,30.7,92,60,34,28.31,28.16,19,3,26,0.00
2013-10-28,63.9,46.8,32.3,46.6,38.7,31.0,96,76,47,28.46,28.30,10,1,10,0.00
2013-10-29,66.9,50.6,37.5,49.0,43.4,36.0,97,78,48,28.55,28.45,11,1,11,0.00
2013-10-30,66.9,56.4,48.9,58.3,52.8,46.0,97,88,71,28.50,28.36,8,1,8,0.04
2013-10-31,68.7,59.9,51.4,62.2,55.0,50.6,98,85,63,28.38,27.97,30,5,30,0.00